timestamp,wind_dir_avg,wind_spd_avg,wind_spd_max_dir,wind_spd_gust,battery_voltage,lat,long
2021-08-20 00:04:00+00:00,218.0,6.92,215.0,8.05,12.73,47.59359,-54.27349
2021-08-20 00:14:01+00:00,217.0,7.33,217.0,7.83,12.65,47.59359,-54.27349
2021-08-20 00:24:01+00:00,221.0,7.69,222.0,8.24,12.65,47.59359,-54.27349
2021-08-20 00:34:01+00:00,221.0,6.86,226.0,7.82,12.65,47.59359,-54.27349
2021-08-20 00:44:01+00:00,219.0,7.37,221.0,8.17,12.65,47.59359,-54.27349
2021-08-20 00:54:01+00:00,218.0,6.84,218.0,7.43,12.65,47.59359,-54.27349
2021-08-20 01:04:01+00:00,217.0,7.25,215.0,8.34,12.65,47.59359,-54.27349
2021-08-20 01:14:01+00:00,215.0,6.98,217.0,7.53,12.65,47.59359,-54.27349
2021-08-20 01:24:01+00:00,216.0,7.36,217.0,8.02,12.65,47.59359,-54.27349
2021-08-20 01:34:01+00:00,218.0,7.17,219.0,8.19,12.65,47.59359,-54.27349
2021-08-20 01:44:01+00:00,214.0,7.12,217.0,7.8,12.65,47.59359,-54.27349
2021-08-20 01:54:01+00:00,209.0,7.08,212.0,8.0,12.65,47.59359,-54.27349
2021-08-20 02:04:01+00:00,217.0,6.7,216.0,7.44,12.65,47.59359,-54.27349
2021-08-20 02:14:00+00:00,216.0,6.48,219.0,7.53,12.65,47.59359,-54.27349
2021-08-20 02:24:00+00:00,215.0,6.07,216.0,6.6,12.65,47.59359,-54.27349
2021-08-20 02:34:00+00:00,217.0,5.99,219.0,6.9,12.65,47.59359,-54.27349
2021-08-20 02:44:00+00:00,216.0,5.35,215.0,6.49,12.65,47.59359,-54.27349
2021-08-20 02:54:00+00:00,220.0,5.5,218.0,6.1,12.65,47.59359,-54.27349
2021-08-20 03:04:00+00:00,219.0,5.23,218.0,5.85,12.65,47.59359,-54.27349
2021-08-20 03:14:01+00:00,216.0,5.85,218.0,6.25,12.65,47.59359,-54.27349
2021-08-20 03:24:01+00:00,213.0,5.55,215.0,6.14,12.65,47.59359,-54.27349
2021-08-20 03:34:01+00:00,207.0,5.37,210.0,5.96,12.65,47.59359,-54.27349
2021-08-20 03:44:01+00:00,213.0,5.41,216.0,6.33,12.65,47.59359,-54.27349
2021-08-20 03:54:01+00:00,216.0,4.95,214.0,5.48,12.65,47.59359,-54.27349
2021-08-20 04:04:01+00:00,218.0,5.13,216.0,5.86,12.65,47.59359,-54.27349
2021-08-20 04:14:01+00:00,213.0,6.09,212.0,6.63,12.65,47.59359,-54.27349
2021-08-20 04:24:01+00:00,220.0,5.32,220.0,6.13,12.65,47.59359,-54.27349
2021-08-20 04:34:01+00:00,216.0,6.57,218.0,7.07,12.65,47.59359,-54.27349
2021-08-20 04:44:01+00:00,219.0,6.74,216.0,7.24,12.65,47.59359,-54.27349
2021-08-20 04:54:01+00:00,219.0,5.93,218.0,6.43,12.65,47.59359,-54.27349
2021-08-20 05:04:01+00:00,216.0,5.3,226.0,6.75,12.65,47.59359,-54.27349
2021-08-20 05:14:01+00:00,219.0,4.66,216.0,5.78,12.57,47.59359,-54.27349
2021-08-20 05:24:01+00:00,225.0,4.76,223.0,5.42,12.57,47.59359,-54.27349
2021-08-20 05:34:01+00:00,216.0,4.3,217.0,4.8,12.57,47.59359,-54.27349
2021-08-20 05:44:01+00:00,217.0,4.29,219.0,4.95,12.57,47.59359,-54.27349
2021-08-20 05:54:01+00:00,225.0,4.12,230.0,5.0,12.57,47.59359,-54.27349
2021-08-20 06:04:01+00:00,238.0,3.88,243.0,4.49,12.57,47.59359,-54.27349
2021-08-20 06:14:00+00:00,228.0,2.89,247.0,3.67,12.57,47.59359,-54.27349
2021-08-20 06:24:00+00:00,258.0,3.47,258.0,3.84,12.57,47.59359,-54.27349
2021-08-20 06:34:00+00:00,270.0,3.26,269.0,4.03,12.57,47.59359,-54.27349
2021-08-20 06:44:00+00:00,305.0,2.86,320.0,3.49,12.57,47.59359,-54.27349
2021-08-20 06:54:00+00:00,309.0,4.37,314.0,5.8,12.57,47.59359,-54.27349
2021-08-20 07:04:00+00:00,301.0,5.21,308.0,6.15,12.57,47.59359,-54.27349
2021-08-20 07:14:01+00:00,275.0,5.14,274.0,5.89,12.49,47.59359,-54.27349
2021-08-20 07:24:01+00:00,253.0,4.32,258.0,5.01,12.49,47.59359,-54.27349
2021-08-20 07:34:01+00:00,257.0,3.79,260.0,4.47,12.49,47.59359,-54.27349
2021-08-20 07:44:01+00:00,258.0,3.88,254.0,4.58,12.49,47.59359,-54.27349
2021-08-20 07:54:01+00:00,264.0,4.73,263.0,5.17,12.49,47.59359,-54.27349
2021-08-20 08:04:01+00:00,314.0,2.62,309.0,3.11,12.49,47.59359,-54.27349
2021-08-20 08:14:01+00:00,347.0,2.74,347.0,3.43,12.49,47.59359,-54.27349
2021-08-20 08:24:01+00:00,353.0,0.72,341.0,1.05,12.49,47.59359,-54.27349
2021-08-20 08:34:01+00:00,311.0,1.43,323.0,1.72,12.49,47.59359,-54.27349
2021-08-20 08:44:01+00:00,296.0,1.64,296.0,1.95,12.49,47.59359,-54.27349
2021-08-20 08:54:01+00:00,273.0,1.78,275.0,1.97,12.49,47.59359,-54.27349
2021-08-20 09:04:01+00:00,270.0,1.85,272.0,1.99,12.49,47.59359,-54.27349
2021-08-20 09:14:01+00:00,234.0,3.06,233.0,3.22,12.49,47.59359,-54.27349
2021-08-20 09:24:01+00:00,242.0,3.12,243.0,3.24,12.49,47.59359,-54.27349
2021-08-20 09:34:01+00:00,226.0,3.88,229.0,4.29,12.49,47.59359,-54.27349
2021-08-20 09:44:01+00:00,211.0,4.23,213.0,4.89,12.49,47.59359,-54.27349
2021-08-20 09:54:01+00:00,231.0,3.36,230.0,3.81,12.49,47.59359,-54.27349
2021-08-20 10:04:01+00:00,203.0,4.01,204.0,4.52,12.49,47.59359,-54.27349
2021-08-20 10:14:01+00:00,210.0,4.52,210.0,4.93,13.05,47.59359,-54.27349
2021-08-20 10:24:01+00:00,214.0,4.32,211.0,4.68,13.05,47.59359,-54.27349
2021-08-20 10:34:01+00:00,209.0,4.55,213.0,5.18,13.05,47.59359,-54.27349
2021-08-20 10:44:01+00:00,224.0,4.72,223.0,5.13,13.05,47.59359,-54.27349
2021-08-20 10:54:01+00:00,219.0,4.97,220.0,5.73,13.05,47.59359,-54.27349
2021-08-20 11:04:01+00:00,225.0,4.86,229.0,5.54,13.05,47.59359,-54.27349
2021-08-20 11:14:01+00:00,216.0,5.6,216.0,6.12,13.05,47.59359,-54.27349
2021-08-20 11:24:01+00:00,216.0,5.13,226.0,5.85,13.05,47.59359,-54.27349
2021-08-20 11:34:01+00:00,214.0,4.59,215.0,4.82,13.05,47.59359,-54.27349
2021-08-20 11:44:01+00:00,216.0,5.17,215.0,5.5,13.05,47.59359,-54.27349
2021-08-20 11:54:01+00:00,213.0,4.53,210.0,4.99,13.05,47.59359,-54.27349
2021-08-20 12:04:01+00:00,209.0,4.95,208.0,5.43,13.05,47.59359,-54.27349
2021-08-20 12:14:01+00:00,207.0,5.3,209.0,5.86,13.37,47.59359,-54.27349
2021-08-20 12:24:01+00:00,206.0,5.05,204.0,5.67,13.37,47.59359,-54.27349
2021-08-20 12:34:01+00:00,211.0,4.55,216.0,4.98,13.37,47.59359,-54.27349
2021-08-20 12:44:01+00:00,214.0,5.51,217.0,6.36,13.37,47.59359,-54.27349
2021-08-20 12:54:01+00:00,219.0,5.07,216.0,5.41,13.37,47.59359,-54.27349
2021-08-20 13:04:01+00:00,215.0,4.77,216.0,5.44,13.37,47.59359,-54.27349
2021-08-20 13:14:01+00:00,220.0,4.88,221.0,5.29,13.68,47.59359,-54.27349
2021-08-20 13:24:01+00:00,211.0,4.02,216.0,4.66,13.68,47.59359,-54.27349
2021-08-20 13:34:01+00:00,202.0,4.29,207.0,4.61,13.68,47.59359,-54.27349
2021-08-20 13:44:01+00:00,211.0,4.88,212.0,5.52,13.68,47.59359,-54.27349
2021-08-20 13:54:01+00:00,211.0,4.26,211.0,4.55,13.68,47.59359,-54.27349
2021-08-20 14:04:01+00:00,217.0,4.4,218.0,5.09,13.68,47.59359,-54.27349
2021-08-20 14:14:01+00:00,208.0,4.35,204.0,4.49,13.84,47.59359,-54.27349
2021-08-20 14:24:01+00:00,212.0,4.4,213.0,4.82,13.84,47.59359,-54.27349
2021-08-20 14:34:01+00:00,207.0,4.2,210.0,4.57,13.84,47.59359,-54.27349
2021-08-20 14:44:01+00:00,201.0,4.82,205.0,5.35,13.84,47.59359,-54.27349
2021-08-20 14:54:01+00:00,203.0,5.1,204.0,5.67,13.84,47.59359,-54.27349
2021-08-20 15:04:01+00:00,197.0,4.99,197.0,5.45,13.84,47.59359,-54.27349
2021-08-20 15:14:01+00:00,191.0,4.83,190.0,5.34,13.92,47.59359,-54.27349
2021-08-20 15:24:01+00:00,194.0,4.62,193.0,4.96,13.92,47.59359,-54.27349
2021-08-20 15:34:01+00:00,197.0,5.07,196.0,5.46,13.92,47.59359,-54.27349
2021-08-20 15:44:01+00:00,197.0,4.47,196.0,4.81,13.92,47.59359,-54.27349
2021-08-20 15:54:01+00:00,212.0,4.46,212.0,4.77,13.92,47.59359,-54.27349
2021-08-20 16:04:01+00:00,201.0,5.08,201.0,5.49,13.92,47.59359,-54.27349
2021-08-20 16:14:01+00:00,203.0,4.21,200.0,4.79,14.16,47.59359,-54.27349
2021-08-20 16:24:01+00:00,207.0,4.87,206.0,5.22,14.16,47.59359,-54.27349
2021-08-20 16:34:01+00:00,208.0,4.74,211.0,5.08,14.16,47.59359,-54.27349
2021-08-20 16:44:01+00:00,210.0,5.18,210.0,5.71,14.16,47.59359,-54.27349
2021-08-20 16:54:01+00:00,220.0,5.14,221.0,5.61,14.16,47.59359,-54.27349
2021-08-20 17:04:01+00:00,218.0,3.73,218.0,4.1,14.16,47.59359,-54.27349
2021-08-20 17:14:01+00:00,218.0,4.62,219.0,5.1,13.92,47.59359,-54.27349
2021-08-20 17:24:01+00:00,207.0,4.43,209.0,4.64,13.92,47.59359,-54.27349
2021-08-20 17:34:01+00:00,206.0,3.68,211.0,4.15,13.92,47.59359,-54.27349
2021-08-20 17:44:01+00:00,150.0,4.11,143.0,4.85,13.92,47.59359,-54.27349
2021-08-20 17:54:01+00:00,121.0,5.16,122.0,5.99,13.92,47.59359,-54.27349
2021-08-20 18:04:01+00:00,119.0,3.05,122.0,3.75,13.92,47.59359,-54.27349
2021-08-20 18:14:01+00:00,143.0,2.87,144.0,3.08,13.44,47.59359,-54.27349
2021-08-20 18:24:01+00:00,72.0,2.06,72.0,3.13,13.44,47.59359,-54.27349
2021-08-20 18:34:01+00:00,64.0,2.52,83.0,3.2,13.44,47.59359,-54.27349
2021-08-20 18:44:01+00:00,71.0,2.06,87.0,3.3,13.44,47.59359,-54.27349
2021-08-20 18:54:01+00:00,88.0,1.49,131.0,1.94,13.44,47.59359,-54.27349
2021-08-20 19:04:01+00:00,119.0,1.25,138.0,2.29,13.44,47.59359,-54.27349
2021-08-20 19:14:01+00:00,127.0,1.99,130.0,2.67,13.6,47.59359,-54.27349
2021-08-20 19:24:01+00:00,126.0,3.42,126.0,3.72,13.6,47.59359,-54.27349
2021-08-20 19:34:01+00:00,118.0,2.92,128.0,3.71,13.6,47.59359,-54.27349
2021-08-20 19:44:01+00:00,101.0,2.21,94.0,3.19,13.6,47.59359,-54.27349
2021-08-20 19:54:01+00:00,97.0,2.93,113.0,4.2,13.6,47.59359,-54.27349
2021-08-20 20:04:01+00:00,117.0,2.86,121.0,4.38,13.6,47.59359,-54.27349
2021-08-20 20:14:01+00:00,120.0,3.99,120.0,4.96,13.68,47.59359,-54.27349
2021-08-20 20:24:01+00:00,120.0,3.95,127.0,4.96,13.68,47.59359,-54.27349
2021-08-20 20:34:01+00:00,112.0,3.35,123.0,4.36,13.68,47.59359,-54.27349
2021-08-20 20:44:01+00:00,134.0,3.9,127.0,4.29,13.68,47.59359,-54.27349
2021-08-20 20:54:01+00:00,171.0,3.3,165.0,3.71,13.68,47.59359,-54.27349
2021-08-20 21:04:01+00:00,176.0,3.39,174.0,4.03,13.68,47.59359,-54.27349
2021-08-20 21:14:01+00:00,187.0,3.99,191.0,4.5,13.29,47.59359,-54.27349
2021-08-20 21:24:01+00:00,187.0,5.05,189.0,5.58,13.29,47.59359,-54.27349
2021-08-20 21:34:01+00:00,189.0,4.95,188.0,5.48,13.29,47.59359,-54.27349
2021-08-20 21:44:01+00:00,179.0,5.0,178.0,5.54,13.29,47.59359,-54.27349
2021-08-20 21:54:01+00:00,176.0,5.74,176.0,6.21,13.29,47.59359,-54.27349
2021-08-20 22:04:01+00:00,179.0,5.83,179.0,7.17,13.29,47.59359,-54.27349
2021-08-20 22:14:01+00:00,209.0,8.31,206.0,9.12,12.81,47.59359,-54.27349
2021-08-20 22:24:01+00:00,205.0,9.62,205.0,10.85,12.81,47.59359,-54.27349
2021-08-20 22:34:01+00:00,215.0,8.97,217.0,10.16,12.81,47.59359,-54.27349
2021-08-20 22:44:01+00:00,276.0,2.03,238.0,3.72,12.81,47.59359,-54.27349
2021-08-20 22:54:01+00:00,46.0,8.67,44.0,10.41,12.81,47.59359,-54.27349
2021-08-20 23:04:01+00:00,57.0,11.16,53.0,12.43,12.81,47.59359,-54.27349
2021-08-20 23:14:00+00:00,75.0,8.66,66.0,10.55,12.65,47.59359,-54.27349
2021-08-20 23:24:00+00:00,89.0,5.0,89.0,8.06,12.65,47.59359,-54.27349
2021-08-20 23:34:00+00:00,66.0,7.61,68.0,8.28,12.65,47.59359,-54.27349
2021-08-20 23:44:00+00:00,46.0,10.82,47.0,11.94,12.65,47.59359,-54.27349
2021-08-20 23:54:00+00:00,45.0,11.48,48.0,12.23,12.65,47.59359,-54.27349
